Regional Weather Roundup
Issued by NWS

Home | Current Version | Previous Version | Text Only | Print | Product List | Glossary Off
Versions: 1 2 3 4 5 6 7 8 9 10 11 12 13 14 15 16 17 18 19 20 21 22 23 24 25 26 27 28 29 30 31 32 33 34 35 36 37 38 39 40 41 42 43 44 45 46 47 48 49 50

694
ASUS45 KBOU 102207
RWRCO

WEATHER ROUNDUP FOR COLORADO
NATIONAL WEATHER SERVICE DENVER/BOULDER CO
300 PM MST WED FEB 10 2016

NOTE: "FAIR" INDICATES FEW OR NO CLOUDS BELOW 12000 FEET WITH NO
SIGNIFICANT WEATHER AND/OR OBSTRUCTIONS TO VISIBILITY.

COZ001>005-013-030-031-102300-
...NORTHWEST COLORADO...

CITY           SKY/WX    TMP DP  RH WIND       PRES   REMARKS
CRAIG          MIX PCPN  27  20  75 SW5       30.34F WCI  22
HAYDEN         CLOUDY    32  18  55 CALM      30.33F
MEEKER         CLOUDY    37  20  50 CALM      30.33S
MOUNT WERNER   NOT AVBL
STEAMBOAT SPGS CLOUDY    29  16  58 CALM      30.33F
WALDEN         CLOUDY    37  19  48 SW8       30.30S
$$

COZ006>008-011-102300-
...WEST CENTRAL VALLEYS...

CITY           SKY/WX    TMP DP  RH WIND       PRES   REMARKS
GRAND JUNCTION CLOUDY    38  29  70 NW7       30.37F
MONTROSE       SUNNY     46  22  38 N5        30.37S
EAGLE          SUNNY     37  19  48 CALM      30.36F
RIFLE          CLOUDY    40  19  43 CALM      30.36F
DELTA          SUNNY     49  22  34 SW3       30.35F
NUCLA          SUNNY     46  21  36 CALM      30.41S
$$

COZ017>023-064>068-102300-
...SOUTHWEST COLORADO...

CITY           SKY/WX    TMP DP  RH WIND       PRES   REMARKS
DURANGO        SUNNY     44  19  36 NE7       30.36F
CORTEZ         SUNNY     50  22  33 CALM      30.37F
PAGOSA SPRINGS SUNNY     51  10  18 S5        30.38S
TELLURIDE      SUNNY     49   1  13 W13G20    30.44F
WOLF CREEK PAS SUNNY     37   1  22 SW3       30.53F
$$

COZ009-010-012-014-032>034-037-058>063-102300-
...CENTRAL COLORADO...

CITY           SKY/WX    TMP DP  RH WIND       PRES   REMARKS
ASPEN          SUNNY     43  19  38 NW7       30.34F
BUENA VISTA    CLOUDY    55  15  20 W9        30.28S
COPPER MTN     CLOUDY    37  -4  17 W25G41    30.43S
BERTHOUD PASS  FAIR      30  19  64 NW45G56   30.36S WCI  12
COTTONWOOD PAS CLOUDY    52 -17   5 SW13G30   30.36R
GUNNISON       CLOUDY    12   9  85 E7        30.49F WCI   2
KREMMLING      CLOUDY    18   5  57 CALM      30.39F
LEADVILLE      CLOUDY    42   4  20 NW12G24   30.36S
MONARCH PASS   CLOUDY    32   3  29 W24G35    30.56F WCI  19
SALIDA         NOT AVBL
SUNLIGHT       SUNNY     41  16  36 CALM      30.47F
WILKERSON PASS CLOUDY    37   0  20 W12G22    30.40F
$$

COZ069>075-102300-
...SAN LUIS VALLEY/SANGRE DE CRISTO MOUNTAINS...

CITY           SKY/WX    TMP DP  RH WIND       PRES   REMARKS
ALAMOSA        SUNNY     47  19  33 SW3       30.34F
LA VETA PASS   SUNNY     43  10  26 S6        30.39S
SAGUACHE       CLOUDY    45  18  33 S8        30.36F
$$

COZ035-036-038>040-102300-
...NORTHERN COLORADO FRONT RANGE...

CITY           SKY/WX    TMP DP  RH WIND       PRES   REMARKS
DENVER INTL AP MOSUNNY   65  19  17 NW17G23   30.08F
DMNS CITY PARK   N/A     66   6   9 NW13G25   30.08S
AURORA         NOT AVBL
FRONT RANGE AP MOSUNNY   57  27  30 MISG      30.10S
ERIE MUNI ARPT CLOUDY    55  21  27 NW8       30.09S
BOULDER MUN AP CLOUDY    63  12  14 NW13G20   30.09R
CENTENNIAL     PTSUNNY   64   9  11 NW10G21   30.11S
BROOMFIELD     MOSUNNY   63   9  12 W18G26    30.11F
FORT COLLINS   CLOUDY    57  16  19 W13       30.06S
LONGMONT       CLOUDY    61  15  16 W10G17    30.08F
$$

COZ041-046-047-076>085-087-088-102300-
...PIKES PEAK/PALMER DIVIDE AND SOUTHERN FOOTHILLS...

CITY           SKY/WX    TMP DP  RH WIND       PRES   REMARKS
COLO. SPRINGS  MOSUNNY   63   6  10 W10G21    30.15F
A. F. ACADEMY  SUNNY     59   2  10 NW15      30.16S
SCHRIEVER AFB  NOT AVBL
ELLICOTT       SUNNY    N/A N/A N/A W3        30.14F
FALCON         NOT AVBL
FORT CARSON    SUNNY     60  21  22 SE6       30.13S
LIMON          SUNNY     44  29  55 NW7       30.09F
MONUMENT HILL  CLOUDY    52  14  22 W9        30.20S
TRINIDAD       SUNNY     70  -2   6 NW21G28   30.15F
$$

COZ042>045-048>051-090-091-102300-
...NORTHEAST COLORADO...

CITY           SKY/WX    TMP DP  RH WIND       PRES   REMARKS
GREELEY ARPT   CLOUDY    55  27  33 NW9       30.05S
AKRON          SUNNY     54  30  40 W7        30.04S
BURLINGTON     SUNNY     53  30  41 W9        30.04R
WRAY           NOT AVBL
STERLING       SUNNY     61  34  36 NW10G18   30.00S
HOLYOKE        SUNNY     59  30  33 NW10G18   30.01R
FORT MORGAN    SUNNY     60  29  30 NW5       30.04R
$$

COZ086-089-092>099-102300-
...SOUTHEAST COLORADO...

CITY           SKY/WX    TMP DP  RH WIND       PRES   REMARKS
PUEBLO         SUNNY     75   6   7 W17G24    30.08F
LA JUNTA       SUNNY     76  14   9 NW13      30.06F
LAMAR          SUNNY     75  18  11 W15       30.02F
SPRINGFIELD      N/A     74   5   7 NW13G22   30.07F
$$




USA.gov is the U.S. government's official web portal to all federal, state and local government web resources and services.